< < Back
Terminal Aerodrome Forecast


Current Version              Previous Versions:   1  2  3  4  5  6  7  8  9  

Terminal Aerodrome Forecast

309
FTUS44 KHUN 190524
TAFHSV
TAF
KHSV 190524Z 1906/2006 03003KT P6SM SCT040 BKN060
     FM190800 02003KT P6SM SCT025 BKN040
     FM191500 03004KT P6SM OVC030
     FM192000 03005KT P6SM VCSH OVC030
     FM200200 01005KT 5SM -RA BR OVC025=

Latest METAR

897
SAUS80 KWBC 191700
MTRHSV
METAR KHSV 191653Z 04005KT 10SM OVC042 06/M01 A3024 RMK AO2 SLP241
T00611006


USA.gov is the U.S. government's official web portal to all federal, state and local government web resources and services.